LDPE-1

Last updated on Mon Feb 16 2026 00:02:51 GMT+0000 (Coordinated Universal Time)

1 49818U 21118B 26045.52725286 -.00000149 00000+0 00000+0 0 9990 2 49818 3.8563 80.0793 0008635 261.0716 278.6095 0.99461413 15425
UTC large
Height (km)
Speed (km/s)
/
Latitude / Longitude
Inclination (degrees)
Orbital Period (minutes)
Azimuth
Elevation
Range (km)
Doppler Factor

Next 0 passes for location: London (51.5072 / 0.1276)

Sorry there are no passes over London.